Weather in Loznaya

Russia / Belgorod Oblast     49°57′17″N   38°45′35″E
temp.,
°C
wind,
m/s
gust,
m/s
humid.,
%
clouds,
%
prec.,
mm/h
press.,
hPa
HPBL,
m
25 february, thu
thu2500:00−11s5889100 0.1 1037344
03:00−10ssw5108399 0.3 1035388
06:00−10ssw51178100 0.0 1033390
09:00−8sw6108599 0.1 1031368
12:00−5sw61090100 0.1 1030431
15:00−3sw61191100 0.1 1027371
18:00−2wsw71493100 0.1 1024379
21:00+1w71497100 0.3 1023362
26 february, fri
fri2600:00+2w61398100 0.4 1022309
03:00+2w61398100 0.9 1021336
06:00+3wnw51298100 0.1 1021298
09:00+2w51099100 0.1 1020249
12:00+3w61299100 0.0 1019391
15:00+3w71297100 0.0 1018438
18:00+3w71397100 0.0 1016521
21:00+3w61397100 0.0 1016385
27 february, sat
sat2700:00+3w51196100 0.0 1014404
03:00+2w51195100 0.0 1013386
06:00+2w51095100 0.1 1011406
09:00+2w51195100 0.1 1011449
12:00+4w61081100 0.1 1010924
15:00+2wnw6109699 0.3 1010614
18:00+1wnw51092100 0.1 1010568
21:00+1w51097100 0.1 1010508
28 february, sun
sun2800:00+1wnw5998100 0.1 1011447
03:000nnw5997100 0.2 1012521
06:00−1n489398 0.1 1014450
09:00−3n687296 0.1 1016686
12:00−2nnw576563 0.0 1017748
15:00−1nnw576333 0.0 1018796
18:00−2nnw587230 0.0 1020740
21:00−4n577761 0.0 1022678
1 march, mon
mon100:00−4n5774100 0.0 1024747
03:00−4n5672100 0.1 1025750
06:00−4n4772100 0.0 1027753
09:00−4n477186 0.0 1028694
12:00−2n466693 0.0 1029856
15:00−1nw456395 0.0 1029892
18:00−1wnw477088 0.0 1029744
21:00−2wnw387879 0.0 1029554